#Datum;Uhrzeit;WR;Pac;DaySum;Status;WR;Pac;DaySum;Status;Pdc1;Udc;Temp;WR;Pac;DaySum;Status;Pdc1;Udc;Temp;WR;Pac;DaySum;Status;Pdc1;Udc;Temp;WR;Pac;DaySum;Status;Pdc1;Pdc2;Udc1;Udc2;Temp;WR;Pac;DaySum;Status;Pdc1;Pdc2;Udc1;Udc2;Temp;WR;Pac;DaySum;Status;Pdc1;Udc;Temp;WR;Pac;DaySum;Status;Pdc1;Udc;Temp;WR;Pac;DaySum;Status;Pdc1;Udc;Temp
04.02.19;23:55:00;1;483;14572;0;2;0;6151;0;0;0;0;3;0;5800;0;0;0;0;4;0;393;0;0;0;0;5;0;615;0;0;0;0;0;0;6;0;380;0;0;0;0;0;0;7;0;10544;0;0;0;0;8;0;10792;0;0;0;0;9;0;5743;0;0;0;0
04.02.19;23:50:00;1;241;14523;0;2;0;6151;0;0;0;0;3;0;5800;0;0;0;0;4;0;393;0;0;0;0;5;0;615;0;0;0;0;0;0;6;0;380;0;0;0;0;0;0;7;0;10544;0;0;0;0;8;0;10792;0;0;0;0;9;0;5743;0;0;0;0
04.02.19;23:45:00;1;428;14503;0;2;0;6151;0;0;0;0;3;0;5800;0;0;0;0;4;0;393;0;0;0;0;5;0;615;0;0;0;0;0;0;6;0;380;0;0;0;0;0;0;7;0;10544;0;0;0;0;8;0;10792;0;0;0;0;9;0;5743;0;0;0;0
04.02.19;23:40:00;1;437;14459;0;2;0;6151;0;0;0;0;3;0;5800;0;0;0;0;4;0;393;0;0;0;0;5;0;615;0;0;0;0;0;0;6;0;380;0;0;0;0;0;0;7;0;10544;0;0;0;0;8;0;10792;0;0;0;0;9;0;5743;0;0;0;0
04.02.19;23:35:00;1;221;14438;0;2;0;6151;0;0;0;0;3;0;5800;0;0;0;0;4;0;393;0;0;0;0;5;0;615;0;0;0;0;0;0;6;0;380;0;0;0;0;0;0;7;0;10544;0;0;0;0;8;0;10792;0;0;0;0;9;0;5743;0;0;0;0
04.02.19;23:30:00;1;750;14419;0;2;0;6151;0;0;0;0;3;0;5800;0;0;0;0;4;0;393;0;0;0;0;5;0;615;0;0;0;0;0;0;6;0;380;0;0;0;0;0;0;7;0;10544;0;0;0;0;8;0;10792;0;0;0;0;9;0;5743;0;0;0;0
04.02.19;23:25:00;1;215;14375;0;2;0;6151;0;0;0;0;3;0;5800;0;0;0;0;4;0;393;0;0;0;0;5;0;615;0;0;0;0;0;0;6;0;380;0;0;0;0;0;0;7;0;10544;0;0;0;0;8;0;10792;0;0;0;0;9;0;5743;0;0;0;0
04.02.19;23:20:00;1;579;14357;0;2;0;6151;0;0;0;0;3;0;5800;0;0;0;0;4;0;393;0;0;0;0;5;0;615;0;0;0;0;0;0;6;0;380;0;0;0;0;0;0;7;0;10544;0;0;0;0;8;0;10792;0;0;0;0;9;0;5743;0;0;0;0
04.02.19;23:15:00;1;218;14311;0;2;0;6151;0;0;0;0;3;0;5800;0;0;0;0;4;0;393;0;0;0;0;5;0;615;0;0;0;0;0;0;6;0;380;0;0;0;0;0;0;7;0;10544;0;0;0;0;8;0;10792;0;0;0;0;9;0;5743;0;0;0;0
04.02.19;23:10:00;1;635;14293;0;2;0;6151;0;0;0;0;3;0;5800;0;0;0;0;4;0;393;0;0;0;0;5;0;615;0;0;0;0;0;0;6;0;380;0;0;0;0;0;0;7;0;10544;0;0;0;0;8;0;10792;0;0;0;0;9;0;5743;0;0;0;0
04.02.19;23:05:00;1;240;14247;0;2;0;6151;0;0;0;0;3;0;5800;0;0;0;0;4;0;393;0;0;0;0;5;0;615;0;0;0;0;0;0;6;0;380;0;0;0;0;0;0;7;0;10544;0;0;0;0;8;0;10792;0;0;0;0;9;0;5743;0;0;0;0
04.02.19;23:00:00;1;458;14226;0;2;0;6151;0;0;0;0;3;0;5800;0;0;0;0;4;0;393;0;0;0;0;5;0;615;0;0;0;0;0;0;6;0;380;0;0;0;0;0;0;7;0;10544;0;0;0;0;8;0;10792;0;0;0;0;9;0;5743;0;0;0;0
04.02.19;22:55:00;1;258;14177;0;2;0;6151;0;0;0;0;3;0;5800;0;0;0;0;4;0;393;0;0;0;0;5;0;615;2;0;0;0;0;0;6;0;380;2;0;0;0;0;0;7;0;10544;0;0;0;0;8;0;10792;0;0;0;0;9;0;5743;0;0;0;0
04.02.19;22:50:00;1;244;14155;0;2;0;6151;0;0;0;0;3;0;5800;0;0;0;0;4;0;393;0;0;0;0;5;0;615;2;0;0;0;0;0;6;0;380;2;0;0;0;0;0;7;0;10544;0;0;0;0;8;0;10792;0;0;0;0;9;0;5743;0;0;0;0
04.02.19;22:45:00;1;470;14135;0;2;0;6151;0;0;0;0;3;0;5800;0;0;0;0;4;0;393;0;0;0;0;5;0;615;2;0;0;0;0;0;6;0;380;2;0;0;0;0;0;7;0;10544;0;0;0;0;8;0;10792;0;0;0;0;9;0;5743;0;0;0;0
04.02.19;22:40:00;1;221;14089;0;2;0;6151;0;0;0;0;3;0;5800;0;0;0;0;4;0;393;0;0;0;0;5;0;615;2;0;0;0;0;0;6;0;380;2;0;0;0;0;0;7;0;10544;0;0;0;0;8;0;10792;0;0;0;0;9;0;5743;0;0;0;0
04.02.19;22:35:00;1;658;14071;0;2;0;6151;0;0;0;0;3;0;5800;0;0;0;0;4;0;393;0;0;0;0;5;0;615;2;0;0;0;0;0;6;0;380;2;0;0;0;0;0;7;0;10544;0;0;0;0;8;0;10792;0;0;0;0;9;0;5743;0;0;0;0
04.02.19;22:30:00;1;299;14022;0;2;0;6151;0;0;0;0;3;0;5800;0;0;0;0;4;0;393;0;0;0;0;5;0;615;2;0;0;0;0;0;6;0;380;2;0;0;0;0;0;7;0;10544;0;0;0;0;8;0;10792;0;0;0;0;9;0;5743;0;0;0;0
04.02.19;22:25:00;1;532;13997;0;2;0;6151;0;0;0;0;3;0;5800;0;0;0;0;4;0;393;0;0;0;0;5;0;615;2;0;0;0;0;0;6;0;380;2;0;0;0;0;0;7;0;10544;0;0;0;0;8;0;10792;0;0;0;0;9;0;5743;0;0;0;0
04.02.19;22:20:00;1;301;13945;0;2;0;6151;0;0;0;0;3;0;5800;0;0;0;0;4;0;393;0;0;0;0;5;0;615;2;0;0;0;0;0;6;0;380;2;0;0;0;0;0;7;0;10544;0;0;0;0;8;0;10792;0;0;0;0;9;0;5743;0;0;0;0
04.02.19;22:15:00;1;303;13920;0;2;0;6151;0;0;0;0;3;0;5800;0;0;0;0;4;0;393;0;0;0;0;5;0;615;2;0;0;0;0;0;6;0;380;2;0;0;0;0;0;7;0;10544;0;0;0;0;8;0;10792;0;0;0;0;9;0;5743;0;0;0;0
04.02.19;22:10:00;1;567;13895;0;2;0;6151;0;0;0;0;3;0;5800;0;0;0;0;4;0;393;0;0;0;0;5;0;615;2;0;0;0;0;0;6;0;380;2;0;0;0;0;0;7;0;10544;0;0;0;0;8;0;10792;0;0;0;0;9;0;5743;0;0;0;0
04.02.19;22:05:00;1;492;13833;0;2;0;6151;0;0;0;0;3;0;5800;0;0;0;0;4;0;393;0;0;0;0;5;0;615;2;0;0;0;0;0;6;0;380;2;0;0;0;0;0;7;0;10544;0;0;0;0;8;0;10792;0;0;0;0;9;0;5743;0;0;0;0
04.02.19;22:00:00;1;881;13791;0;2;0;6151;0;0;0;0;3;0;5800;0;0;0;0;4;0;393;0;0;0;0;5;0;615;2;0;0;0;0;0;6;0;380;2;0;0;0;0;0;7;0;10544;0;0;0;0;8;0;10792;0;0;0;0;9;0;5743;0;0;0;0
04.02.19;21:55:00;1;465;13720;0;2;0;6151;0;0;0;0;3;0;5800;0;0;0;0;4;0;393;0;0;0;0;5;0;615;2;0;0;0;0;0;6;0;380;2;0;0;0;0;0;7;0;10544;0;0;0;0;8;0;10792;0;0;0;0;9;0;5743;0;0;0;0
04.02.19;21:50:00;1;453;13683;0;2;0;6151;0;0;0;0;3;0;5800;0;0;0;0;4;0;393;0;0;0;0;5;0;615;2;0;0;0;0;0;6;0;380;2;0;0;0;0;0;7;0;10544;0;0;0;0;8;0;10792;0;0;0;0;9;0;5743;0;0;0;0
04.02.19;21:45:00;1;790;13629;0;2;0;6151;0;0;0;0;3;0;5800;0;0;0;0;4;0;393;0;0;0;0;5;0;615;2;0;0;0;0;0;6;0;380;2;0;0;0;0;0;7;0;10544;0;0;0;0;8;0;10792;0;0;0;0;9;0;5743;0;0;0;0
04.02.19;21:40:00;1;376;13591;0;2;0;6151;0;0;0;0;3;0;5800;0;0;0;0;4;0;393;0;0;0;0;5;0;615;2;0;0;0;0;0;6;0;380;2;0;0;0;0;0;7;0;10544;0;0;0;0;8;0;10792;0;0;0;0;9;0;5743;0;0;0;0
04.02.19;21:35:00;1;786;13559;0;2;0;6151;0;0;0;0;3;0;5800;0;0;0;0;4;0;393;0;0;0;0;5;0;615;2;0;0;0;0;0;6;0;380;2;0;0;0;0;0;7;0;10544;0;0;0;0;8;0;10792;0;0;0;0;9;0;5743;0;0;0;0
04.02.19;21:30:00;1;430;13501;0;2;0;6151;0;0;0;0;3;0;5800;0;0;0;0;4;0;393;0;0;0;0;5;0;615;2;0;0;0;0;0;6;0;380;2;0;0;0;0;0;7;0;10544;0;0;0;0;8;0;10792;0;0;0;0;9;0;5743;0;0;0;0
04.02.19;21:25:00;1;906;13462;0;2;0;6151;0;0;0;0;3;0;5800;0;0;0;0;4;0;393;0;0;0;0;5;0;615;2;0;0;0;0;0;6;0;380;2;0;0;0;0;0;7;0;10544;0;0;0;0;8;0;10792;0;0;0;0;9;0;5743;0;0;0;0
04.02.19;21:20:00;1;704;13377;0;2;0;6151;0;0;0;0;3;0;5800;0;0;0;0;4;0;393;0;0;0;0;5;0;615;2;0;0;0;0;0;6;0;380;2;0;0;0;0;0;7;0;10544;0;0;0;0;8;0;10792;0;0;0;0;9;0;5743;0;0;0;0
04.02.19;21:15:00;1;682;13319;0;2;0;6151;0;0;0;0;3;0;5800;0;0;0;0;4;0;393;0;0;0;0;5;0;615;2;0;0;0;0;0;6;0;380;2;0;0;0;0;0;7;0;10544;0;0;0;0;8;0;10792;0;0;0;0;9;0;5743;0;0;0;0
04.02.19;21:10:00;1;1092;13262;0;2;0;6151;0;0;0;0;3;0;5800;0;0;0;0;4;0;393;0;0;0;0;5;0;615;2;0;0;0;0;0;6;0;380;2;0;0;0;0;0;7;0;10544;0;0;0;0;8;0;10792;0;0;0;0;9;0;5743;0;0;0;0
04.02.19;21:05:00;1;686;13177;0;2;0;6151;0;0;0;0;3;0;5800;0;0;0;0;4;0;393;0;0;0;0;5;0;615;2;0;0;0;0;0;6;0;380;2;0;0;0;0;0;7;0;10544;0;0;0;0;8;0;10792;0;0;0;0;9;0;5743;0;0;0;0
04.02.19;21:00:00;1;705;13119;0;2;0;6151;0;0;0;0;3;0;5800;0;0;0;0;4;0;393;0;0;0;0;5;0;615;2;0;0;0;0;0;6;0;380;2;0;0;0;0;0;7;0;10544;0;0;0;0;8;0;10792;0;0;0;0;9;0;5743;0;0;0;0
04.02.19;20:55:00;1;1128;13057;0;2;0;6151;0;0;0;0;3;0;5800;0;0;0;0;4;0;393;0;0;0;0;5;0;615;2;0;0;0;0;0;6;0;380;2;0;0;0;0;0;7;0;10544;0;0;0;0;8;0;10792;0;0;0;0;9;0;5743;0;0;0;0
04.02.19;20:50:00;1;682;12974;0;2;0;6151;0;0;0;0;3;0;5800;0;0;0;0;4;0;393;0;0;0;0;5;0;615;2;0;0;0;0;0;6;0;380;2;0;0;0;0;0;7;0;10544;0;0;0;0;8;0;10792;0;0;0;0;9;0;5743;0;0;0;0
04.02.19;20:45:00;1;884;12917;0;2;0;6151;0;0;0;0;3;0;5800;0;0;0;0;4;0;393;0;0;0;0;5;0;615;2;0;0;0;0;0;6;0;380;2;0;0;0;0;0;7;0;10544;0;0;0;0;8;0;10792;0;0;0;0;9;0;5743;0;0;0;0
04.02.19;20:40:00;1;727;12833;0;2;0;6151;0;0;0;0;3;0;5800;0;0;0;0;4;0;393;0;0;0;0;5;0;615;2;0;0;0;0;0;6;0;380;2;0;0;0;0;0;7;0;10544;0;0;0;0;8;0;10792;0;0;0;0;9;0;5743;0;0;0;0
04.02.19;20:35:00;1;813;12772;0;2;0;6151;0;0;0;0;3;0;5800;0;0;0;0;4;0;393;0;0;0;0;5;0;615;2;0;0;0;0;0;6;0;380;2;0;0;0;0;0;7;0;10544;0;0;0;0;8;0;10792;0;0;0;0;9;0;5743;0;0;0;0
04.02.19;20:30:00;1;1351;12702;0;2;0;6151;0;0;0;0;3;0;5800;0;0;0;0;4;0;393;0;0;0;0;5;0;615;2;0;0;0;0;0;6;0;380;2;0;0;0;0;0;7;0;10544;0;0;0;0;8;0;10792;0;0;0;0;9;0;5743;0;0;0;0
04.02.19;20:25:00;1;776;12587;0;2;0;6151;0;0;0;0;3;0;5800;0;0;0;0;4;0;393;0;0;0;0;5;0;615;2;0;0;0;0;0;6;0;380;2;0;0;0;0;0;7;0;10544;0;0;0;0;8;0;10792;0;0;0;0;9;0;5743;0;0;0;0
04.02.19;20:20:00;1;782;12522;0;2;0;6151;0;0;0;0;3;0;5800;0;0;0;0;4;0;393;0;0;0;0;5;0;615;2;0;0;0;0;0;6;0;380;2;0;0;0;0;0;7;0;10544;0;0;0;0;8;0;10792;0;0;0;0;9;0;5743;0;0;0;0
04.02.19;20:15:00;1;983;12457;0;2;0;6151;0;0;0;0;3;0;5800;0;0;0;0;4;0;393;0;0;0;0;5;0;615;2;0;0;0;0;0;6;0;380;2;0;0;0;0;0;7;0;10544;0;0;0;0;8;0;10792;0;0;0;0;9;0;5743;0;0;0;0
04.02.19;20:10:00;1;782;12364;0;2;0;6151;0;0;0;0;3;0;5800;0;0;0;0;4;0;393;0;0;0;0;5;0;615;2;0;0;0;0;0;6;0;380;2;0;0;0;0;0;7;0;10544;0;0;0;0;8;0;10792;0;0;0;0;9;0;5743;0;0;0;0
04.02.19;20:05:00;1;793;12299;0;2;0;6151;0;0;0;0;3;0;5800;0;0;0;0;4;0;393;0;0;0;0;5;0;615;2;0;0;0;0;0;6;0;380;2;0;0;0;0;0;7;0;10544;0;0;0;0;8;0;10792;0;0;0;0;9;0;5743;0;0;0;0
04.02.19;20:00:00;1;1177;12232;0;2;0;6151;0;0;0;0;3;0;5800;0;0;0;0;4;0;393;0;0;0;0;5;0;615;2;0;0;0;0;0;6;0;380;2;0;0;0;0;0;7;0;10544;0;0;0;0;8;0;10792;0;0;0;0;9;0;5743;0;0;0;0
04.02.19;19:55:00;1;787;12139;0;2;0;6151;0;0;0;0;3;0;5800;0;0;0;0;4;0;393;0;0;0;0;5;0;615;2;0;0;0;0;0;6;0;380;2;0;0;0;0;0;7;0;10544;0;0;0;0;8;0;10792;0;0;0;0;9;0;5743;0;0;0;0
04.02.19;19:50:00;1;719;12073;0;2;0;6151;0;0;0;0;3;0;5800;0;0;0;0;4;0;393;0;0;0;0;5;0;615;2;0;0;0;0;0;6;0;380;2;0;0;0;0;0;7;0;10544;0;0;0;0;8;0;10792;0;0;0;0;9;0;5743;0;0;0;0
04.02.19;19:45:00;1;1325;12013;0;2;0;6151;0;0;0;0;3;0;5800;0;0;0;0;4;0;393;0;0;0;0;5;0;615;2;0;0;0;0;0;6;0;380;2;0;0;0;0;0;7;0;10544;0;0;0;0;8;0;10792;0;0;0;0;9;0;5743;0;0;0;0
04.02.19;19:40:00;1;715;11906;0;2;0;6151;0;0;0;0;3;0;5800;0;0;0;0;4;0;393;0;0;0;0;5;0;615;2;0;0;0;0;0;6;0;380;2;0;0;0;0;0;7;0;10544;0;0;0;0;8;0;10792;0;0;0;0;9;0;5743;0;0;0;0
04.02.19;19:35:00;1;920;11846;0;2;0;6151;0;0;0;0;3;0;5800;0;0;0;0;4;0;393;0;0;0;0;5;0;615;2;0;0;0;0;0;6;0;380;2;0;0;0;0;0;7;0;10544;0;0;0;0;8;0;10792;0;0;0;0;9;0;5743;0;0;0;0
04.02.19;19:30:00;1;687;11759;0;2;0;6151;0;0;0;0;3;0;5800;0;0;0;0;4;0;393;0;0;0;0;5;0;615;2;0;0;0;0;0;6;0;380;2;0;0;0;0;0;7;0;10544;0;0;0;0;8;0;10792;0;0;0;0;9;0;5743;0;0;0;0
04.02.19;19:25:00;1;584;11704;0;2;0;6151;0;0;0;0;3;0;5800;0;0;0;0;4;0;393;0;0;0;0;5;0;615;2;0;0;0;0;0;6;0;380;2;0;0;0;0;0;7;0;10544;0;0;0;0;8;0;10792;0;0;0;0;9;0;5743;0;0;0;0
04.02.19;19:20:00;1;989;11654;0;2;0;6151;0;0;0;0;3;0;5800;0;0;0;0;4;0;393;0;0;0;0;5;0;615;2;0;0;0;0;0;6;0;380;2;0;0;0;0;0;7;0;10544;0;0;0;0;8;0;10792;0;0;0;0;9;0;5743;0;0;0;0
04.02.19;19:15:00;1;525;11583;0;2;0;6151;0;0;0;0;3;0;5800;0;0;0;0;4;0;393;0;0;0;0;5;0;615;2;0;0;0;0;0;6;0;380;2;0;0;0;0;0;7;0;10544;0;0;0;0;8;0;10792;0;0;0;0;9;0;5743;0;0;0;0
04.02.19;19:10:00;1;412;11539;0;2;0;6151;0;0;0;0;3;0;5800;0;0;0;0;4;0;393;0;0;0;0;5;0;615;2;0;0;0;0;0;6;0;380;2;0;0;0;0;0;7;0;10544;0;0;0;0;8;0;10792;0;0;0;0;9;0;5743;0;0;0;0
04.02.19;19:05:00;1;323;11507;0;2;0;6151;0;0;0;0;3;0;5800;0;0;0;0;4;0;393;0;0;0;0;5;0;615;2;0;0;0;0;0;6;0;380;2;0;0;0;0;0;7;0;10544;0;0;0;0;8;0;10792;0;0;0;0;9;0;5743;0;0;0;0
04.02.19;19:00:00;1;343;11452;0;2;0;6151;0;0;0;0;3;0;5800;0;0;0;0;4;0;393;0;0;0;0;5;0;615;2;0;0;0;0;0;6;0;380;2;0;0;0;0;0;7;0;10544;0;0;0;0;8;0;10792;0;0;0;0;9;0;5743;0;0;0;0
04.02.19;18:55:00;1;433;11424;0;2;0;6151;0;0;0;0;3;0;5800;0;0;0;0;4;0;393;0;0;0;0;5;0;615;2;0;0;0;0;0;6;0;380;2;0;0;0;0;0;7;0;10544;0;0;0;0;8;0;10792;0;0;0;0;9;0;5743;0;0;0;0
04.02.19;18:50:00;1;548;11392;0;2;0;6151;0;0;0;0;3;0;5800;0;0;0;0;4;0;393;0;0;0;0;5;0;615;2;0;0;0;0;0;6;0;380;2;0;0;0;0;0;7;0;10544;0;0;0;0;8;0;10792;0;0;0;0;9;0;5743;0;0;0;0
04.02.19;18:45:00;1;918;11333;0;2;0;6151;0;0;0;0;3;0;5800;0;0;0;0;4;0;393;0;0;0;0;5;0;615;2;0;0;0;0;0;6;0;380;2;0;0;0;0;0;7;0;10544;0;0;0;0;8;0;10792;0;0;0;0;9;0;5743;0;0;0;0
04.02.19;18:40:00;1;1834;11234;0;2;0;6151;0;0;0;0;3;0;5800;0;0;0;0;4;0;393;0;0;0;0;5;0;615;2;0;0;0;0;0;6;0;380;2;0;0;0;0;0;7;0;10544;0;0;0;0;8;0;10792;0;0;0;0;9;0;5743;0;0;0;0
04.02.19;18:35:00;1;2795;11057;0;2;0;6151;0;0;0;0;3;0;5800;0;0;0;0;4;0;393;0;0;0;0;5;0;615;2;0;0;0;0;0;6;0;380;2;0;0;0;0;0;7;0;10544;0;0;0;0;8;0;10792;0;0;0;0;9;0;5743;0;0;0;0
04.02.19;18:30:00;1;2436;10838;0;2;0;6151;0;0;0;0;3;0;5800;0;0;0;0;4;0;393;0;0;0;0;5;0;615;2;0;0;0;0;0;6;0;380;2;0;0;0;0;0;7;0;10544;0;0;0;0;8;0;10792;0;0;0;0;9;0;5743;0;0;0;0
04.02.19;18:25:00;1;2981;10639;0;2;0;6151;0;0;0;0;3;0;5800;0;0;0;0;4;0;393;0;0;0;0;5;0;615;2;0;0;0;0;0;6;0;380;2;0;0;0;0;0;7;0;10544;0;0;0;0;8;0;10792;0;0;0;0;9;0;5743;0;0;0;0
04.02.19;18:20:00;1;2337;10415;0;2;0;6151;0;0;0;0;3;0;5800;0;0;0;0;4;0;393;0;0;0;0;5;0;615;2;0;0;0;0;0;6;0;380;2;0;0;0;0;0;7;0;10544;0;0;0;0;8;0;10792;0;0;0;0;9;0;5743;0;0;0;0
04.02.19;18:15:00;1;2508;10219;0;2;0;6151;0;0;0;0;3;0;5800;0;0;0;0;4;0;393;0;0;0;0;5;0;615;2;0;0;0;0;0;6;0;380;2;0;0;0;0;0;7;0;10544;0;0;0;0;8;0;10792;0;0;0;0;9;0;5743;0;0;0;0
04.02.19;18:10:00;1;2326;9999;0;2;0;6151;0;0;0;0;3;0;5800;0;0;0;0;4;0;393;0;0;0;0;5;0;615;2;0;0;0;0;0;6;0;380;2;0;0;0;0;0;7;0;10544;0;0;0;0;8;0;10792;0;0;0;0;9;0;5743;0;0;0;0
04.02.19;18:05:00;1;2342;9804;0;2;0;6151;0;0;0;0;3;0;5800;0;0;0;0;4;0;393;0;0;0;0;5;0;615;2;0;0;0;0;0;6;0;380;2;0;0;0;0;0;7;0;10544;0;0;0;0;8;0;10792;0;0;0;0;9;0;5743;0;0;0;0
04.02.19;18:00:00;1;1491;9623;0;2;0;6151;0;0;0;0;3;0;5800;0;0;0;0;4;0;393;0;0;0;0;5;0;615;2;0;0;0;0;0;6;0;380;2;0;0;0;0;0;7;0;10544;0;0;0;0;8;0;10792;0;0;0;0;9;0;5743;0;0;0;0
04.02.19;17:55:00;1;1155;9496;0;2;0;6151;0;0;0;0;3;0;5800;0;0;0;0;4;0;393;0;0;0;0;5;0;615;2;0;0;0;0;0;6;0;380;2;0;0;0;0;0;7;0;10544;0;0;0;0;8;0;10792;0;0;0;0;9;0;5743;0;0;0;0
04.02.19;17:50:00;1;329;9426;0;2;0;6151;0;0;0;0;3;0;5800;0;0;0;0;4;0;393;0;0;0;0;5;0;615;2;0;0;0;0;0;6;0;380;2;0;0;0;0;0;7;0;10544;0;0;0;0;8;0;10792;0;0;0;0;9;0;5743;0;0;0;0
04.02.19;17:45:00;1;520;9387;0;2;0;6151;0;0;0;0;3;0;5800;0;0;0;0;4;0;393;0;0;0;0;5;0;615;2;0;0;0;0;0;6;0;380;2;0;0;0;0;0;7;0;10544;0;0;0;0;8;0;10792;0;0;0;0;9;0;5743;0;0;0;0
04.02.19;17:40:00;1;559;9345;0;2;0;6151;0;0;0;0;3;0;5800;0;0;0;0;4;0;393;0;0;0;0;5;0;615;2;0;0;0;0;0;6;0;380;2;0;0;0;0;0;7;0;10544;0;0;0;0;8;0;10792;0;0;0;0;9;0;5743;0;0;0;0
04.02.19;17:35:00;1;2447;9276;0;2;0;6151;0;0;42;2;3;0;5800;0;0;180;10;4;0;393;0;0;0;0;5;0;615;2;0;0;0;0;0;6;0;380;2;0;0;0;0;0;7;0;10544;0;0;0;0;8;0;10792;0;0;0;0;9;0;5743;0;0;0;0
04.02.19;17:30:00;1;357;9073;0;2;0;6151;6;0;296;12;3;0;5800;6;0;339;15;4;0;393;0;0;8;1;5;0;615;2;0;0;0;0;0;6;0;380;2;0;0;0;0;0;7;0;10544;0;0;0;0;8;0;10792;0;0;0;0;9;0;5743;0;0;0;0
04.02.19;17:25:00;1;1593;9043;0;2;0;6151;6;0;346;12;3;0;5800;6;0;413;15;4;0;393;2;0;80;7;5;0;615;2;0;0;0;0;0;6;0;380;2;0;0;0;0;0;7;0;10544;0;0;0;0;8;0;10792;0;0;0;0;9;0;5743;0;0;0;0
04.02.19;17:20:00;1;2213;8891;0;2;0;6151;6;0;386;13;3;0;5800;6;2;470;16;4;0;393;1;0;131;7;5;0;615;2;0;0;0;0;0;6;0;380;2;0;0;0;0;0;7;0;10544;6;0;301;15;8;0;10792;6;0;299;14;9;0;5743;6;0;306;10
04.02.19;17:15:00;1;335;8706;0;2;0;6151;6;0;409;14;3;1;5800;6;3;497;16;4;0;393;1;0;178;7;5;0;615;2;0;0;0;0;0;6;0;380;2;0;0;0;0;0;7;0;10544;6;0;386;16;8;0;10792;6;0;385;15;9;0;5743;6;0;388;10
04.02.19;17:10:00;1;2282;8665;0;2;2;6151;4;4;412;14;3;2;5800;6;5;521;16;4;0;393;1;0;218;8;5;0;615;2;0;0;0;0;0;6;0;380;2;0;0;0;0;0;7;0;10544;6;2;451;16;8;0;10792;6;2;451;15;9;0;5743;6;1;486;10
04.02.19;17:05:00;1;2612;8457;0;2;11;6150;3;23;406;15;3;2;5800;6;8;536;17;4;0;393;3;0;206;8;5;0;615;2;0;0;0;0;0;6;0;380;0;0;0;0;0;2;7;1;10544;6;17;453;17;8;4;10792;6;9;483;16;9;3;5743;6;4;528;11
04.02.19;17:00:00;1;737;8252;0;2;52;6149;4;81;355;16;3;4;5800;6;10;549;17;4;0;393;3;0;222;8;5;0;615;2;0;0;0;0;0;6;0;380;2;0;0;0;0;7;7;34;10544;6;63;404;18;8;28;10792;6;47;420;17;9;0;5743;6;0;578;11
04.02.19;16:55:00;1;980;8188;0;2;79;6145;4;110;355;16;3;6;5799;3;13;549;18;4;3;393;3;3;199;8;5;0;615;2;0;0;0;0;0;6;0;380;1;4;3;64;63;14;7;67;10541;4;108;424;18;8;61;10790;4;93;426;17;9;10;5743;3;19;526;11
04.02.19;16:50:00;1;968;8125;0;2;351;6138;4;390;353;17;3;184;5798;4;224;418;18;4;92;393;3;95;200;8;5;0;615;2;0;2;63;62;5;6;0;380;2;6;3;162;256;16;7;120;10536;4;158;464;18;8;102;10785;4;137;425;17;9;7;5742;6;12;576;12
04.02.19;16:45:00;1;1241;8017;0;2;612;6110;4;659;355;18;3;371;5784;4;415;426;19;4;182;385;5;190;203;8;5;0;615;1;0;1;318;315;17;6;0;380;23;7;7;180;523;16;7;260;10526;4;304;484;19;8;153;10776;4;188;455;18;9;26;5741;6;37;551;12
04.02.19;16:40:00;1;1164;7920;0;2;821;6059;4;876;356;19;3;452;5753;4;499;423;19;4;199;370;5;206;201;8;5;0;615;23;0;0;407;441;18;6;0;380;23;3;3;181;568;16;7;498;10505;4;548;493;19;8;270;10763;4;309;448;18;9;76;5739;4;106;501;13
04.02.19;16:35:00;1;642;7837;0;2;1022;5992;4;1083;363;19;3;563;5716;4;616;433;20;4;225;354;5;234;200;8;5;0;615;26;0;3;421;445;18;6;0;380;23;3;3;433;352;16;7;698;10463;4;755;497;20;8;430;10741;4;480;489;19;9;102;5733;4;135;526;13
04.02.19;16:30:00;1;749;7782;0;2;1185;5907;4;1251;367;20;3;679;5669;4;736;443;20;4;241;335;5;251;199;8;5;7;615;26;0;2;422;566;18;6;0;380;23;5;5;181;597;16;7;1090;10405;4;1156;459;20;8;668;10705;4;721;491;19;9;118;5724;4;153;545;14
04.02.19;16:25:00;1;1145;7719;0;2;1376;5808;4;1448;363;20;3;796;5613;4;857;439;21;4;235;315;5;245;199;8;5;0;614;26;0;1;440;616;18;6;0;380;23;4;5;182;606;17;7;1607;10315;4;1688;452;21;8;919;10651;4;969;402;20;9;133;5715;4;169;555;14
04.02.19;16:20:00;1;424;7645;0;2;1497;5694;4;1572;361;21;3;871;5547;4;932;443;21;4;277;295;5;288;199;8;5;6;614;4;0;2;433;660;18;6;0;380;23;4;4;255;542;17;7;2138;10183;4;2242;485;21;8;1312;10574;4;1373;380;20;9;155;5703;4;189;565;14
04.02.19;16:15:00;1;426;7610;0;2;1618;5570;4;1699;362;21;3;946;5474;4;1008;447;21;4;281;273;5;293;199;8;5;0;614;1;0;1;447;690;18;6;0;380;23;5;4;182;616;17;7;2452;10007;4;2575;494;21;8;1829;10466;4;1921;436;21;9;167;5691;4;197;464;15
04.02.19;16:10:00;1;260;7545;0;2;1720;5435;4;1808;366;21;3;1016;5395;4;1086;454;21;4;309;249;5;322;201;8;5;3;613;1;0;1;447;696;18;6;0;380;23;4;5;182;621;17;7;2538;9803;4;2650;475;21;8;1977;10315;4;2076;441;21;9;207;5677;4;237;359;16
04.02.19;16:05:00;1;324;7523;0;2;1828;5291;4;1915;354;21;3;1100;5311;4;1170;431;22;4;323;223;5;336;201;8;5;10;612;4;1;1;439;686;19;6;0;380;23;4;3;183;624;18;7;2885;9591;4;3023;491;21;8;2570;10150;4;2696;451;22;9;532;5660;4;571;356;17
04.02.19;16:00:00;1;595;7496;0;2;1903;5139;4;1999;364;22;3;1148;5220;4;1220;429;22;4;314;196;5;327;199;8;5;9;611;4;2;3;441;692;19;6;0;380;23;7;3;465;626;18;7;2611;9350;4;2743;510;22;8;2386;9936;4;2505;484;22;9;717;5617;4;763;359;17
04.02.19;15:55:00;1;463;7439;0;2;1993;4981;4;2089;357;22;3;1197;5124;4;1269;434;22;4;323;170;5;337;199;8;5;11;610;4;2;5;441;694;19;6;0;380;1;5;5;538;628;18;7;3086;9131;4;3229;491;22;8;3009;9734;4;3152;493;22;9;1052;5557;4;1109;386;18
04.02.19;15:50:00;1;873;7398;0;2;2121;4814;4;2222;357;22;3;1275;5024;4;1352;430;22;4;337;143;5;351;198;7;5;67;609;4;14;22;386;618;20;6;0;380;23;5;3;520;631;18;7;3066;8877;4;3210;479;22;8;2909;9486;4;3047;473;22;9;1206;5469;4;1274;428;19
04.02.19;15:45:00;1;416;7336;0;2;2208;4638;4;2309;355;22;3;1327;4918;4;1403;429;22;4;356;115;5;371;199;7;5;73;603;4;16;21;386;618;20;6;0;380;23;6;3;504;634;19;7;3342;8620;4;3493;484;22;8;3271;9243;4;3422;490;22;9;1442;5369;4;1525;476;20
04.02.19;15:40:00;1;433;7301;0;2;2252;4455;4;2357;355;21;3;1349;4807;4;1428;433;22;4;388;85;5;404;201;7;5;77;597;4;18;21;386;618;20;6;0;380;23;5;3;461;635;19;7;3161;8343;4;3321;483;22;8;3238;8968;4;3390;489;22;9;1634;5247;4;1725;487;20
04.02.19;15:35:00;1;434;7266;0;2;2135;4267;4;2239;362;21;3;1314;4695;4;1390;428;23;4;173;53;5;181;200;7;5;80;591;4;21;21;386;618;20;6;0;380;23;5;4;644;636;19;7;3105;8078;4;3248;478;22;8;3171;8697;4;3320;484;23;9;1679;5111;4;1782;523;21
04.02.19;15:30:00;1;419;7203;0;2;2238;4091;4;2349;369;20;3;1394;4586;4;1472;429;23;4;0;37;3;0;234;7;5;87;584;4;22;25;386;618;20;6;49;379;4;16;19;466;432;20;7;3569;7813;4;3735;476;23;8;3586;8430;4;3748;488;23;9;1644;4970;4;1742;523;21
04.02.19;15:25:00;1;418;7168;0;2;2498;3907;4;2618;367;19;3;1531;4471;4;1616;429;23;4;0;37;3;0;244;7;5;92;577;4;28;33;386;618;20;6;66;374;4;48;59;466;432;20;7;3859;7516;4;4043;475;22;8;3783;8132;4;3968;480;23;9;2052;4837;4;2168;521;21
04.02.19;15:20:00;1;675;7133;0;2;1642;3699;4;1723;377;19;3;1586;4344;4;1673;422;23;4;0;37;3;0;228;7;5;100;569;4;31;32;386;618;20;6;67;369;4;39;44;466;432;20;7;3975;7191;4;4159;477;22;8;3899;7814;4;4090;479;23;9;2131;4664;4;2255;534;21
04.02.19;15:15:00;1;426;7070;0;2;1493;3556;4;1569;384;19;3;1621;4212;4;1707;423;23;4;0;37;3;0;222;7;5;104;560;4;32;32;386;618;20;6;62;363;4;21;25;466;431;20;7;4094;6860;4;4305;476;22;8;4010;7489;4;4189;471;23;9;2194;4487;4;2320;532;21
04.02.19;15:10:00;1;430;7034;0;2;1584;3431;4;1666;391;19;3;1704;4076;4;1794;439;24;4;0;37;3;0;219;7;5;104;552;4;37;38;386;618;20;6;74;357;4;42;46;466;432;20;7;4214;6520;4;4422;476;22;8;4153;7154;4;4352;477;22;9;2268;4303;4;2397;528;21
04.02.19;15:05:00;1;489;6998;0;2;1365;3299;4;1437;383;18;3;1537;3934;4;1627;472;23;4;0;37;3;0;232;7;5;92;543;4;28;30;386;618;20;6;67;351;4;31;35;466;432;20;7;4267;6169;4;4482;478;21;8;4269;6809;4;4471;481;22;9;2300;4115;4;2432;533;21
04.02.19;15:00:00;1;753;6955;0;2;1397;3184;4;1472;380;19;3;1609;3805;4;1704;475;24;4;2;37;3;2;211;7;5;100;535;4;35;32;386;618;19;6;68;346;4;32;40;466;432;20;7;3690;5816;4;3872;478;21;8;3633;6455;4;3819;483;22;9;1961;3925;4;2076;527;20
04.02.19;14:55:00;1;446;6890;0;2;1668;3069;4;1752;383;19;3;2023;3673;4;2136;501;24;4;4;37;3;4;205;7;5;123;527;4;47;45;386;618;19;6;82;340;4;48;53;466;431;20;7;2982;5507;4;3122;465;21;8;3224;6151;4;3377;467;22;9;1815;3762;4;1925;538;20
04.02.19;14:50:00;1;428;6852;0;2;1695;2930;4;1778;377;18;3;2086;3504;4;2203;492;24;4;5;36;3;5;205;7;5;127;517;4;50;48;386;618;19;6;88;333;4;28;31;466;431;20;7;4519;5264;4;4730;468;21;8;4215;5891;4;4415;477;22;9;2097;3612;4;2213;516;21
04.02.19;14:45:00;1;715;6816;0;2;1731;2789;4;1817;384;18;3;2138;3330;4;2257;496;23;4;20;36;3;21;205;7;5;126;506;4;54;46;386;618;19;6;93;326;4;50;55;466;432;19;7;4136;4896;4;4349;486;20;8;3970;5547;4;4163;465;22;9;2194;3444;4;2321;519;21
04.02.19;14:40:00;1;478;6753;0;2;1719;2644;4;1809;384;18;3;2076;3151;4;2196;497;23;4;8;34;3;9;205;7;5;133;495;4;55;52;386;618;19;6;88;318;4;36;40;466;431;19;7;4826;4539;4;5052;473;20;8;4795;5206;4;5025;472;21;9;2651;3253;4;2795;526;21
04.02.19;14:35:00;1;489;6713;0;2;1783;2502;4;1870;379;17;3;2179;2981;4;2301;493;22;4;9;33;3;9;205;7;5;140;484;4;56;52;386;618;19;6;90;310;4;22;23;466;432;19;7;4726;4139;4;4963;472;19;8;4671;4807;4;4901;473;21;9;2602;3033;4;2744;523;20
04.02.19;14:30:00;1;490;6672;0;2;1716;2353;4;1816;380;17;3;2165;2799;4;2283;481;22;4;7;33;3;7;205;7;5;144;473;4;58;51;386;618;19;6;96;302;4;40;42;466;432;19;7;4851;3744;4;5088;471;18;8;4779;4419;4;5002;465;20;9;2550;2817;4;2690;525;20
04.02.19;14:25:00;1;1007;6613;0;2;1813;2210;4;1904;381;16;3;2161;2619;4;2279;472;21;4;9;32;3;9;205;7;5;140;461;4;61;55;386;618;19;6;107;294;4;73;78;466;432;19;7;4639;3342;4;4860;436;17;8;5048;4022;4;5283;468;19;9;2784;2604;4;2937;519;20
04.02.19;14:20:00;1;488;6537;0;2;1843;2059;4;1930;379;16;3;2191;2439;4;2306;465;21;4;13;31;3;13;205;6;5;149;449;4;60;59;386;618;19;6;106;285;4;59;64;466;432;19;7;4653;2956;4;4872;428;16;8;5103;3601;4;5347;487;18;9;2822;2375;4;2971;528;19
04.02.19;14:15:00;1;540;6496;0;2;1851;1906;4;1937;378;15;3;2183;2256;4;2302;472;20;4;26;30;3;27;205;6;5;152;437;4;61;61;386;618;19;6;112;276;4;87;96;466;432;19;7;4783;2568;4;5015;427;15;8;5295;3176;4;5554;480;17;9;2888;2137;4;3050;529;18
04.02.19;14:10:00;1;891;6449;0;2;1869;1751;4;1958;380;14;3;2192;2074;4;2313;480;19;4;21;28;3;22;205;6;5;159;424;4;63;60;386;618;19;6;106;268;4;41;43;466;432;19;7;4614;2169;4;4821;416;14;8;5190;2735;4;5448;462;16;9;2982;1896;4;3145;522;17
04.02.19;14:05:00;1;686;6366;0;2;1837;1596;4;1922;376;14;3;2184;1892;4;2305;489;18;4;19;26;3;20;205;6;5;159;411;4;64;64;386;618;18;6;116;258;4;79;84;466;432;19;7;4285;1783;4;4473;390;13;8;5280;2301;4;5525;472;15;9;2742;1647;4;2884;488;16
04.02.19;14:00:00;1;618;6310;0;2;1714;1442;4;1796;373;13;3;1990;1710;4;2103;492;18;4;18;24;3;19;205;6;5;161;397;4;67;74;386;618;18;6;115;249;4;55;62;466;432;18;7;3903;1432;4;4069;398;12;8;4543;1861;4;4761;480;13;9;2519;1416;4;2656;499;15
04.02.19;13:55:00;1;559;6257;0;2;1795;1298;4;1880;375;12;3;2182;1543;4;2303;485;17;4;29;23;3;30;205;6;5;162;383;4;66;69;386;618;18;6;118;239;4;73;80;466;432;18;7;4105;1103;4;4286;372;11;8;5173;1489;4;5420;475;12;9;2761;1210;4;2912;497;14